OPS 4682 DEB, 19185

Orbit data source: Space-Track

OPS 4682 DEB, 19185 is space debris in LEO originally from a launch on Sat, 03 Apr 1965 UTC launched from the Air Force Western Test Range (AFWTR). Debris objects in space refer to the collection of defunct objects orbiting the Earth. Examples of debris include non-operational satellites, rocket bodies, and fragments generated from explosions, collisions, or faulty payload assembly.

Loading next visibility...
Identifier
19185, 1965-027AR
Orbit
LEO
Country
Flag of USUS
Related business
Manufacturer
Unknown
Mission
Spacecraft
Bus & Motor
Unknown
Mass
Unknown
Launch date (UTC)
1965-04-03 (61 years ago)
Launch vehicle
Unknown
Launch site
Air Force Western Test Range (AFWTR)
Object type
Payload
Rocket body
Debris
Shape & HBR
Unknown shape, 0.1 m
Radar Cross Section
Medium (>0.1 m² and <1 m²)

Expand to show TLE details & history
Last TLE update: 1 day ago

TLE from 1 day ago
0 OPS 4682 DEB
1 19185U 65027AR  26254.75803598 -.00000244  00000-0 -85974-3 0  9996
2 19185  90.2538   6.3664 0035016 202.0421 313.4586 12.97804414961336
Epoch: 2026-09-11T18:11Z
TLE epoch observation values (Epoch: 2026-09-11T18:11:34.308Z)
Latitude
24.8156°
Longitude
-77.18658°
Altitude
1,255.323 km
Speed
7.238 km/s
True Right ascension
12h 25m 55s
True Declination
24° 41' 36"
Sunlit
Object was in daylight at epoch
Visualization orbit readout
Latitude
Unknown
Longitude
Unknown
Altitude
Unknown
Speed
Unknown
Apparent Right ascension
Unknown
Apparent Declination
Unknown
Sunlit
N/A
Visualization observer readout
Local Sidereal Time
21:26:20
Azimuth
Unknown
Elevation
Unknown
Doppler factor
Unknown
Orbital elements
Apogee altitude
1,294.605 km
Perigee altitude
1,241.058 km
Semi-major axis
7,645.968 km
Eccentricity
0.0035
Inclination
90.2538°
RAAN
6.3664°
Arg. of periapsis
202.0421°
True anomaly
313.16646°
Mean anomaly
313.4586°
Eccentric anomaly
313.31262°
Mean motion
3.24634 °/min
Orbital period
110.89 mins
BSTAR
-0.00085974
Loading maneuver chart data...
Computing Atmospheric mass density...
Loading historical data...
Loading historical data...
Loading historical data...
Loading historical data...
Loading historical data...
Loading historical data...
Loading historical data...

Documentation

Showing up to 5 results
|